Volver al catálogo

STARLINK-35793

ActivoComunicacionesVLEO
NORAD 67179·PAYLOAD·🇺🇸 United States

Lanzado Dec 17, 2025 desde Cape Canaveral Space Force Station

Loading…

Próximos Pases (próximas 24 horas)

TLE

ActualizadoSource: CelesTrak SupGP

Época: Sep 14, 2026, 21:48 UTC

1 67179C 25303S   26257.90881944 -.00019167  00000+0 -69414-3 0  2577
2 67179  43.0035 322.0389 0001480 269.6701 122.1089 15.27591950    16

Sigue STARLINK-35793 en tiempo real con AllMySat

Download on the App Store